This is the latest recevied weather packets stored in our database for station/object KV4OP. If no packets are shown the sender has not sent any weather packets the latest 10 day(s).
| Time | Temp. | Humidity | Pressure | Rain* | Wind** | Luminosity | Snow |
|---|---|---|---|---|---|---|---|
| 1777752617 | 21.67° C | 84% | 1012.3 hPa | 8.64 mm | - | - | - |
| 1777752315 | 21.67° C | 84% | 1012.6 hPa | 4.57 mm | - | - | - |
| 1777752014 | 21.67° C | 84% | 1012.1 hPa | 4.32 mm | - | - | - |
| 1777751715 | 21.67° C | 83% | 1011.7 hPa | 4.32 mm | - | - | - |
| 1777751412 | 22.22° C | 80% | 1011.4 hPa | 4.06 mm | - | - | - |
| 1777751112 | 23.89° C | 78% | 1011.7 hPa | 3.05 mm | - | - | - |
| 1777750814 | 25° C | 73% | 1012.1 hPa | 0.51 mm | - | - | - |
| 1777750513 | 26.11° C | 69% | 1011.2 hPa | 0 mm | - | - | - |
| 1777750211 | 28.33° C | 64% | 1010.7 hPa | 0 mm | - | - | - |
| 1777749914 | 30° C | 63% | 1011.1 hPa | 0 mm | - | - | - |
| 1777749610 | 30° C | 63% | 1010.7 hPa | 0 mm | - | - | - |
| 1777749310 | 30° C | 63% | 1010.7 hPa | 0 mm | - | - | - |
| 1777749011 | 30.56° C | 63% | 1010.7 hPa | 0 mm | - | - | - |
| 1777748709 | 30.56° C | 62% | 1010.7 hPa | 0 mm | - | - | - |
| 1777748409 | 30.56° C | 61% | 1010.6 hPa | 0 mm | - | - | - |
| 1777748108 | 30.56° C | 60% | 1010.6 hPa | 0 mm | - | - | - |
| 1777747809 | 30.56° C | 62% | 1010.6 hPa | 0 mm | - | - | - |
| 1777747509 | 30.56° C | 62% | 1010.8 hPa | 0 mm | - | - | - |
| 1777747209 | 30° C | 61% | 1010.8 hPa | 0 mm | - | - | - |
| 1777746910 | 30° C | 62% | 1010.8 hPa | 0 mm | - | - | - |
| 1777746608 | 30.56° C | 60% | 1010.7 hPa | 0 mm | - | - | - |
| 1777746310 | 31.11° C | 63% | 1010.6 hPa | 0 mm | - | - | - |
| 1777746007 | 31.11° C | 62% | 1010.6 hPa | 0 mm | - | - | - |
| 1777745708 | 30.56° C | 63% | 1010.8 hPa | 0 mm | - | - | - |
| 1777745408 | 30.56° C | 62% | 1010.6 hPa | 0 mm | - | - | - |
* Rain latest hour (hover to see other rain measurements)
** Current wind speed in m/s (hover to see current wind gust speed)